www.pogodaiklimat.ru

Погода и климат >> Архив погоды >> Индия >> Раджастхан >> Джайпур


ПОГОДА в Джайпуре

  • Прогноз погоды в Джайпуре
  • Монитор погоды в Джайпуре

АРХИВ ПОГОДЫ в Джайпуре

Время (UTC), дата Ветер
(напр.,м/с)
 
Видим.   Явления Облачность Т
(С)
Тd
(С)
f
(%)
Тe
(С)
Тes
(С)
Комфортность P
(гПа)
Po
(гПа)
Тmin
(С)
Tmax
(С)
R
(мм)
R24
(мм)
S
(см)
18 16.01 В 3 2000 м 5/3 1050 м
[Sc Ac trans]
+13.2 +2.9 50 +12 +12 1017.6 1018.0
21 16.01 штиль 0 2000 м мгла 4/3 1050 м
[Sc Ac trans]
+12.6 +7.3 70 +12 +12 1017.2 1017.0
00 17.01 штиль 0 2000 м мгла 3/3 1050 м
[Sc]
+11.4 +5.3 66 +11 +11 1016.6 1017.0
03 17.01 В 2 2000 м мгла 3/0
[Ac trans]
+11.4 +4.3 62 +11 +12 1018.2 1018.0 +8.3 +23.6
06 17.01 В 2 2000 м мгла ясно +20.4 +4.9 36 +22 +31 комфорт 1017.8 1018.0
09 17.01 1 4000 м мгла ясно +24.0 +1.6 23 +23 +31 комфорт 1014.7 1015.0
12 17.01 Ю 2 4000 м мгла ясно +22.6 +3.1 28 +22 +23 комфорт 1014.2 1014.0 +25.4
15 17.01 СВ 2 2000 м мгла ясно +15.8 +5.9 52 +16 +16 1016.7 1017.0
18 17.01 штиль 0 2000 м мгла ясно +14.4 +5.1 54 +14 +14 1017.9 1018.0
21 17.01 штиль 0 2000 м мгла ясно +12.0 +5.6 65 +12 +12 1018.2 1018.0
00 18.01 2000 м мгла ясно +10.4 +3.0 60 1018.2 1018.0
03 18.01 В 1 1000 м мгла ясно +12.4 +5.1 61 +13 +14 1019.3 1019.0 +8.0 +25.4
06 18.01 Ю 2 2000 м мгла ясно +21.0 +3.5 32 +22 +32 комфорт 1019.0 1019.0
09 18.01 З 2 2000 м мгла ясно +23.6 +4.2 28 +23 +30 комфорт 1016.2 1016.0
12 18.01 1 2000 м мгла ясно +23.0 +0.3 22 +22 +22 комфорт 1014.9 1015.0 +24.8
15 18.01 штиль 0 2000 м мгла ясно +17.8 +6.6 48 +18 +18 1017.1 1017.0
18 18.01 штиль 0 2000 м мгла ясно +14.4 +6.6 59 +14 +14 1018.1 1018.0
21 18.01 штиль 0 2000 м мгла ясно +12.8 +7.0 68 +12 +12 1017.8 1018.0
00 19.01 штиль 0 2000 м мгла ясно +10.8 +6.1 73 +10 +10 1017.5 1018.0
03 19.01 штиль 0 1000 м мгла 3/0
[Ac trans]
+12.6 +6.8 68 +12 +14 1019.1 1019.0 +8.7 +24.8
06 19.01 2 2000 м мгла 4/0
[Ci fib]
+22.4 +2.7 27 +22 +32 комфорт 1018.5 1019.0
09 19.01 ЮЗ 2 4000 м мгла 5/0
[Ac trans Ci fib]
+26.0 +1.2 20 +24 +30 комфорт 1015.7 1016.0
12 19.01 Ю 2 2000 м мгла 4/0
[Ac trans Ci fib]
+24.2 +3.3 26 +24 +24 комфорт 1015.0 1015.0 +26.8
15 19.01 В 2 2000 м мгла 5/0
[Ac trans Ci fib]
+19.2 +5.3 40 +20 +20 1016.9 1017.0
18 19.01 СВ 2 2000 м мгла 5/0
[Ac trans Ci fib]
+16.4 +8.1 58 +17 +17 1017.9 1018.0
21 19.01 штиль 0 2000 м мгла 6/0
[Ac trans Ci fib]
+14.4 +8.0 65 +14 +14 1017.6 1018.0
00 20.01 штиль 0 2000 м мгла 8/0
[Ac trans Ci fib]
+12.6 +8.2 75 +12 +12 1016.6 1017.0
03 20.01 штиль 0 1000 м дым 8/0
[Ac trans Ci fib]
+13.2 +8.4 73 +13 +14 1018.9 1019.0 +11.1 +26.8
06 20.01 Ю 2 2000 м мгла 8/0
[Ac trans Ci fib]
+22.2 +5.9 35 +23 +29 комфорт 1017.9 1018.0
09 20.01 Ю 3 4000 м мгла ясно +27.2 +5.0 24 +26 +33 жарко 1014.2 1014.0
12 20.01 ЮВ 2 2000 м мгла 3/0
[Ac trans]
+26.0 +5.3 26 +25 +25 комфорт 1013.2 1013.0 +28.1
15 20.01 В 2 2000 м мгла 5/0
[Ci fib]
+19.6 +9.0 50 +21 +21 комфорт 1014.5 1015.0
18 20.01 В 2 2000 м мгла 5/0
[Ci fib]
+18.2 +9.9 58 +19 +19 1014.7 1015.0
21 20.01 В 3 2000 м мгла 5/0
[Ac trans Ci fib]
+15.6 +8.1 61 +15 +15 1013.6 1014.0
00 21.01 В 3 2000 м мгла 8/0
[Ac trans Ci fib]
+15.6 +7.6 59 +15 +15 1013.0 1013.0
03 21.01 штиль 0 1000 м мгла 8/0
[Ac trans Ci sp]
+16.2 +8.8 62 +16 +18 1014.0 1014.0 +14.7 +28.1
06 21.01 В 3 2000 м мгла 8/4 1050 м
[Sc Ac trans]
+20.4 +8.6 47 +22 +25 комфорт 1013.6 1014.0
09 21.01 В 2 2000 м мгла {гроза, дождь} 8/5 900 м
[Cb calv Ac trans]
+23.0 +9.5 42 +25 +27 комфорт 1008.1 1008.0 0.0
12 21.01 СЗ 4 2000 м мгла 8/4 900 м
[Sc Ac trans]
+21.8 +10.1 47 +23 +23 комфорт 1008.3 1008.0 +24.6 0.0
15 21.01 С 3 2000 м мгла 10/5 900 м
[Cb calv As op]
+19.2 +8.9 51 +20 +20 1009.7 1010.0 0.0
18 21.01 ЮЗ 3 2000 м гроза, ливневой дождь 10/4 900 м
[Cb calv As op]
+17.2 +13.3 78 +17 +17 1013.2 1013.0 0.3
21 21.01 1 2000 м дымка {гроза} 10/5 900 м
[Cb calv As op]
+14.8 +13.4 91 +15 +15 1012.4 1012.0 4
00 22.01 СЗ 3 2000 м дымка {гроза} 10/5 900 м
[Sc As op]
+13.0 +9.9 81 +12 +12 1012.8 1013.0 4
03 22.01 С 3 2000 м мгла 1/0
[Ac trans]
+13.6 +8.9 73 +13 +14 1014.0 1014.0 +11.2 +24.6 4
06 22.01 ЮЗ 1 2000 м мгла 9/3 1050 м
[Sc Ac trans]
+18.0 +9.2 56 +19 +23 1014.8 1015.0
09 22.01 З 3 2000 м мгла 9/4 900 м
[Sc Ac trans]
+19.6 +7.5 45 +21 +22 комфорт 1013.0 1013.0
12 22.01 СЗ 2 2000 м мгла 9/4 1050 м
[Sc Ac trans]
+18.4 +8.3 52 +19 +19 1013.3 1013.0 +20.4
15 22.01 штиль 0 2000 м мгла 9/4 900 м
[Sc Ac trans]
+16.0 +8.1 59 +16 +16 1014.8 1015.0
18 22.01 штиль 0 2000 м мгла 9/4 900 м
[Sc Ac trans]
+14.8 +9.8 72 +15 +15 1016.0 1016.0
21 22.01 штиль 0 2000 м мгла 9/4 900 м
[Sc Ac trans]
+13.2 +8.4 73 +13 +13 1015.6 1016.0
00 23.01 штиль 0 2000 м мгла 8/4 1050 м
[Sc Ac trans]
+11.8 +9.0 83 +11 +11 1016.0 1016.0
03 23.01 штиль 0 1000 м дымка 8/5 1050 м
[Sc Ac trans]
+12.6 +10.3 86 +12 +13 1017.8 1018.0 +10.6 +20.4
06 23.01 В 3 2000 м мгла 4/3 1050 м
[Sc Ac trans]
+18.2 +12.9 71 +19 +25 1018.2 1018.0
09 23.01 СВ 2 2000 м мгла 5/5 1050 м
[Sc Ac trans]
+20.8 +7.2 41 +23 +27 комфорт 1015.0 1015.0
12 23.01 ЮВ 2 2000 м мгла 4/4 1050 м
[Sc]
+20.0 +8.6 48 +22 +22 комфорт 1015.7 1016.0 +21.9

 

Местоположение метеостанции Джайпур (Раджастхан, Индия): широта 26.82 долгота 75.80 высота над уровнем моря 390 м.

В архиве по умолчанию представлена погода в Джайпуре за последнюю неделю. Архивные данные за месяц целиком и за предыдущие месяцы, начиная с января 2011 года, Вы можете получить, выбрав интересующий диапазон дат из раскрывающегося списка и нажав кнопку "Ввод!".


*Определитесь, кто Вы:
робот инопланетянин человек

Внимание! Время в таблицах - всемирное. Для получения местного времени необходимо прибавить поправку, которая равна 5.5 ч.

Смотрите также архив погоды в соседних городах и на ближайших метеорологических станциях:

Погода в Аджмере (Раджастхан, Индия) (124 км)
Погода в Шеопуре (Мадхья-Прадеш, Индия) (155 км)
Погода в Пилани (Раджастхан, Индия) (169 км)
Погода в Чуру (Раджастхан, Индия) (181 км)
Погода в Коте (Раджастхан, Индия) (186 км)
Погода в Бхилваре (Раджастхан, Индия) (201 км)
Погода в Агре (Уттар-Прадеш, Индия) (218 км)
Погода в Нью-Дели Айя Нагар (округ Дели, Индия) (226 км)
Погода в Нью-Дели аэропорт (округ Дели, Индия) (234 км)
Погода в Рохтаке (Харьяна, Индия) (236 км)

Пояснения к столбцам:

Ветер - указаны скорость ветра в м/с - средняя за 10 мин, порывы в срок и между сроками (в фигурных скобках) и направление, откуда дует ветер: С - северный, СВ - северо-восточный, В - восточный, ЮВ - юго-восточный, Ю - южный, ЮЗ - юго-западный, З - западный, СЗ - северо-западный.
Видимость - горизонтальная дальность видимости в метрах или километрах. При видимости от 1 до 10 км при отсутствии осадков обычно наблюдается дымка, при ухудшении видимости до 1 км и менее - туман. В сухую погоду видимость может ухудшаться дымом, пылью или мглою.
Явления - указаны атмосферные явления, наблюдавшиеся в срок или в последний час перед сроком; фигурными скобками обозначены явления, наблюдавшиеся между сроками (за 1-3 часа до срока); квадратными скобками обозначены град или гололедные отложения с указанием их диаметра в мм.
Облачность - указаны через наклонную черту общая и нижняя облачность в баллах и высота нижней границы облаков в метрах; квадратными скобками обозначены формы облаков: Ci - перистые, Cs - перисто-слоистые, Cc - перисто-кучевые, Ac - высококучевые, As - высокослоистые, Sc - слоисто-кучевые, Ns - слоисто-дождевые, Cu - кучевые, Cb - кучево-дождевые. Подробнее классификацию облаков см. в Атласе облаков (PDF).
T - Температура воздуха - температура, измеренная на высоте 2 м над землей.
Td - Температура точки росы - температура, при понижении до которой содержащийся в воздухе водяной пар достигнет насыщения.
f - Относительная влажность воздуха - влажноcть воздуха, измеренная на высоте 2 м над землей.
Te - Эффективная температура - температура, которую ощущает одетый по сезону человек в тени. Характеристика душности погоды. При расчете учитывается влияние влажности воздуха и скорости ветра на теплоощущения человека.
Tes - Эффективная температура на солнце - температура, которую ощущает человек, с поправкой на солнечный нагрев. Характеристика знойности погоды. Зависит от высоты солнца над горизонтом, облачности и скорости ветра. Ночью, в пасмурную погоду, а также при ветре 12 м/с и более поправка равна нулю.
P - Атмосферное давление - приведенное к уровню моря атмосферное давление.
Po - Атмосферное давление - измеренное на уровне метеостанции атмосферное давление.
Tmin - Минимальная температура - минимум температуры воздуха на высоте 2 м над землей.
Tmax - Максимальная температура - максимум температуры воздуха на высоте 2 м над землей.
R - Количество осадков - Количество выпавших осадков за период времени, мм. При наведении курсора мыши на число - период времени, за который выпало указанное количество осадков.
R24 - Количество осадков - Количество выпавших осадков за 24 часа, мм.
S - Снежный покров - Высота снежного покрова, см. При наведении курсора мыши на число - состояние снежного покрова и степень покрытия местности в баллах.